Content
SEND FEEDBACK

Daily
Averages
Monthly
Summary
United States of America

NEW YORK - CENTRAL PARK, NEW YORK


Home > North America > United States > New York
Elevation: 14 feet     Latitude: 40 47N     Longitude: 073 58W

WEATHER
 
SELECT A DAY
Number of Records: 147,926;   Date Range: 11/1/95 - 7/7/14
 
SHARE

PRINT THIS DATA

[ ← Previous Day ]
WEATHER ALMANAC - JUNE 14, 2013
[ Next Day → ]
[ °C ]   °F
Weather ElementAverageHighLow
Temperature59.2 °F71.1 °F (3:51 pm)54 °F (1:17 am)
Dewpoint53.2 °F60.1 °F (5:44 pm)51.1 °F (5:33 am)
Humidity81.9 %97 % (1:17 am)53 % (2:51 pm)
Barometer29.72 in29.89 in (11:51 pm)29.55 in (12:51 am)
Wind Speed6.5 mph12.7 mph (1:59 am)
Wind Gust27.6 mph (1:59 am)
Weather ElementAverage
Visibility8.1 mi
Wind DirectionENE (74.1 °)

Weather ElementTotal
Precipitation0.92 in
Heating Degree Days2.5 (Base 65)
Growing Degree Days12.6 (Base 50)
Averaged from 37 records on June 14, 2013
WEATHER CONDITIONS BREAKOUT
WIND DIRECTION BREAKOUT
WEATHER BY HOUR - JUNE 14, 2013
[ °C ]   °F
Local TimeTemperatureDewpointHumidityBarometerVisibilityWind DirectionWind SpeedGust SpeedPrecipitationEventsConditions
12:51 AM55.0 °F53.1 °F93 %29.55 in2.0 miNE (40°)10.4 mph17.3 mph0.08 inRainRain
1:09 AM55.0 °F53.1 °F93 %29.59 in1.8 miNNE (30°)10.4 mph20.7 mph0.09 inRainHeavy Rain
1:17 AM54.0 °F53.1 °F97 %29.59 in2.0 miNNE (30°)9.2 mph21.9 mph0.12 inRainRain
1:51 AM55.0 °F53.1 °F93 %29.58 in2.5 miNE (40°)11.5 mph19.6 mph0.23 inRainRain
1:59 AM54.0 °F53.1 °F97 %29.60 in3.0 miNE (50°)12.7 mph27.6 mph0.02 inRainRain
2:32 AM54.0 °F53.1 °F97 %29.62 in4.0 miVariable6.9 mph19.6 mph0.06 inRainLight Rain
2:51 AM55.0 °F53.1 °F93 %29.60 in7.0 miNNE (20°)8.1 mph17.3 mph0.08 inRainLight Rain
3:22 AM54.0 °F52.0 °F93 %29.62 in7.0 miNNE (20°)11.5 mph20.7 mph0.02 inRainLight Rain
3:30 AM55.0 °F53.1 °F93 %29.62 in8.0 miNNE (30°)8.1 mph20.7 mph0.02 inRainLight Rain
3:51 AM55.0 °F53.1 °F93 %29.60 in8.0 miVariable5.8 mph17.3 mph0.03 inRainLight Rain
4:11 AM54.0 °F52.0 °F93 %29.64 in10.0 miNNE (20°)12.7 mph19.6 mph0.00 inRainLight Rain
4:21 AM55.0 °F52.0 °F89 %29.64 in10.0 miNE (50°)8.1 mph0.01 inRainLight Rain
4:51 AM54.0 °F52.0 °F93 %29.63 in10.0 miNorth (360°)5.8 mph0.01 inOvercast
5:12 AM54.0 °F52.0 °F93 %29.67 in10.0 miVariable6.9 mphOvercast
5:33 AM54.0 °F51.1 °F90 %29.68 in10.0 miNNE (20°)8.1 mph19.6 mphOvercast
5:51 AM54.0 °F52.0 °F93 %29.66 in10.0 miVariable4.6 mphOvercast
6:12 AM54.0 °F52.0 °F93 %29.70 in10.0 miVariable4.6 mphOvercast
6:51 AM54.0 °F51.1 °F90 %29.69 in10.0 miNNE (20°)8.1 mphOvercast
7:51 AM55.0 °F51.1 °F86 %29.70 in10.0 miVariable5.8 mphOvercast
8:51 AM57.9 °F51.1 °F78 %29.72 in10.0 miNE (40°)9.2 mph19.6 mphOvercast
9:51 AM57.0 °F52.0 °F83 %29.76 in9.0 miVariable5.8 mph16.1 mphOvercast
10:51 AM59.0 °F51.1 °F75 %29.79 in10.0 miNorthOvercast
11:51 AM63.0 °F51.1 °F65 %29.80 in10.0 miVariable6.9 mphPartly Cloudy
12:51 PM64.0 °F51.1 °F63 %29.80 in10.0 miVariable4.6 mphOvercast
1:51 PM68.0 °F52.0 °F56 %29.80 in10.0 miCalmScattered Clouds
2:51 PM70.0 °F52.0 °F53 %29.79 in10.0 miWNW (290°)3.5 mphClear
3:51 PM71.1 °F55.0 °F57 %29.78 in10.0 miWest (280°)5.8 mphClear
4:51 PM70.0 °F55.0 °F59 %29.78 in10.0 miWSW (250°)6.9 mphClear
5:35 PM63.0 °F59.0 °F87 %29.81 in1.5 miVariable4.6 mph0.03 inRainLight Rain
5:44 PM63.0 °F60.1 °F90 %29.81 in3.0 miWSW (250°)5.8 mph0.06 inRainLight Rain
5:51 PM63.0 °F60.1 °F90 %29.79 in10.0 miVariable4.6 mph0.06 inScattered Clouds
6:51 PM64.9 °F57.0 °F75 %29.81 in10.0 miWNW (300°)4.6 mphScattered Clouds
7:51 PM66.0 °F52.0 °F60 %29.84 in10.0 miVariable4.6 mphClear
8:51 PM64.9 °F52.0 °F63 %29.85 in10.0 miNW (310°)3.5 mphClear
9:51 PM64.0 °F53.1 °F67 %29.86 in10.0 miCalmPartly Cloudy
10:51 PM64.0 °F55.0 °F73 %29.88 in10.0 miWNW (290°)4.6 mphClear
11:51 PM63.0 °F55.0 °F75 %29.89 in10.0 miCalmClear
Hourly data recorded from KNYC, located miles away from New York - Central Park, New York







STORIES FROM OUR PARTNERS